This is the latest recevied weather packets stored in our database for station/object WX4SGA. If no packets are shown the sender has not sent any weather packets the latest 10 day(s).
| Time | Temp. | Humidity | Pressure | Rain* | Wind** | Luminosity | Snow |
|---|---|---|---|---|---|---|---|
| 1787780615 | 25° C | 99% | 1015.6 hPa | 0 mm | - | 70 W/m² | - |
| 1787780311 | 24.44° C | 99% | 1015.6 hPa | 0 mm | - | 68 W/m² | - |
| 1787780007 | 24.44° C | 99% | 1015.6 hPa | 0 mm | - | 68 W/m² | - |
| 1787779702 | 24.44° C | 99% | 1015.6 hPa | 0 mm | - | 67 W/m² | - |
| 1787779401 | 24.44° C | 99% | 1015.6 hPa | 0 mm | - | 64 W/m² | - |
| 1787779096 | 24.44° C | 99% | 1015.6 hPa | 0 mm | - | 61 W/m² | - |
| 1787778796 | 23.89° C | 99% | 1015.6 hPa | 0 mm | - | 60 W/m² | - |
| 1787778491 | 24.44° C | 99% | 1015.6 hPa | 0 mm | - | 64 W/m² | - |
| 1787778186 | 23.89° C | 99% | 1015.6 hPa | 0 mm | - | 66 W/m² | - |
| 1787777881 | 23.89° C | 99% | 1015.6 hPa | 0 mm | - | 64 W/m² | - |
| 1787777577 | 23.89° C | 99% | 1015.9 hPa | 0 mm | - | 64 W/m² | - |
| 1787777272 | 23.89° C | 99% | 1016.3 hPa | 0 mm | - | 75 W/m² | - |
| 1787776971 | 23.89° C | 99% | 1016.3 hPa | 0 mm | - | 105 W/m² | - |
| 1787776664 | 23.33° C | 99% | 1016.3 hPa | 0 mm | - | 103 W/m² | - |
| 1787776363 | 23.33° C | 99% | 1016.3 hPa | 0 mm | - | 97 W/m² | - |
| 1787776061 | 23.33° C | 99% | 1016.3 hPa | 1.78 mm | - | 94 W/m² | - |
| 1787775757 | 23.33° C | 99% | 1016.3 hPa | 1.78 mm | - | 89 W/m² | - |
| 1787775455 | 23.33° C | 99% | 1016.3 hPa | 0 mm | - | 92 W/m² | - |
| 1787775154 | 23.33° C | 99% | 1016.3 hPa | 0 mm | - | 95 W/m² | - |
| 1787774854 | 23.33° C | 99% | 1016.6 hPa | 0 mm | - | 101 W/m² | - |
| 1787774553 | 23.33° C | 99% | 1016.3 hPa | 2.29 mm | - | 108 W/m² | - |
| 1787774252 | 23.33° C | 99% | 1015.9 hPa | 14.99 mm | - | 115 W/m² | - |
| 1787773952 | 23.33° C | 99% | 1016.3 hPa | 22.1 mm | - | 107 W/m² | - |
| 1787773650 | 22.78° C | 99% | 1016.3 hPa | 28.19 mm | - | 98 W/m² | - |
| 1787773347 | 22.78° C | 98% | 1016.6 hPa | 19.3 mm | - | 62 W/m² | - |
* Rain latest hour (hover to see other rain measurements)
** Current wind speed in m/s (hover to see current wind gust speed)